Location: Peebles
(55.6412°N, 3.1714°W)
Time: 21:45:41
(UTC+01:00)

deb Kosmos-2123 - Pass Details

Date: 11 July 2022
Orbit: 942 x 985 km, 82.9° (Epoch: 17 August)

Event Time Altitude Azimuth Distance (km) Brightness Sun altitude
Exits shadow 22:46:16 - 118° (ESE) 3,373 ? -5.9°
Reaches altitude 10° 22:49:09 10° 98° (E) 2,733 ? -6.1°
Maximum altitude 22:51:55 13° 72° (ENE) 2,492 ? -6.4°
Drops below altitude 10° 22:54:42 10° 45° (NE) 2,730 ? -6.6°
Sets 22:58:39 0° 20° (NNE) 3,673 ? -6.9°
